This is the latest recevied weather packets stored in our database for station/object SV9FBP. If no packets are shown the sender has not sent any weather packets the latest 10 day(s).
| Time | Temp. | Humidity | Pressure | Rain* | Wind** | Luminosity | Snow |
|---|---|---|---|---|---|---|---|
| 1777572276 | 20° C | 74% | 1012.7 hPa | 0 mm | - | - | - |
| 1777571375 | 20.56° C | 73% | 1012.7 hPa | 0 mm | - | - | - |
| 1777570472 | 20.56° C | 72% | 1012.7 hPa | 0 mm | - | - | - |
| 1777569569 | 20.56° C | 71% | 1012.6 hPa | 0 mm | - | - | - |
| 1777568668 | 20.56° C | 71% | 1012.4 hPa | 0 mm | - | - | - |
| 1777567766 | 21.11° C | 70% | 1012.5 hPa | 0 mm | - | - | - |
| 1777566863 | 21.67° C | 70% | 1012.4 hPa | 0 mm | - | - | - |
| 1777565961 | 21.67° C | 68% | 1012.6 hPa | 0 mm | - | - | - |
| 1777565059 | 22.22° C | 65% | 1012.6 hPa | 0 mm | - | - | - |
| 1777564157 | 22.22° C | 62% | 1012.5 hPa | 0 mm | - | - | - |
| 1777563254 | 22.22° C | 60% | 1012.6 hPa | 0 mm | - | - | - |
| 1777562352 | 22.78° C | 52% | 1012.9 hPa | 0 mm | - | - | - |
| 1777561451 | 22.78° C | 46% | 1012.9 hPa | 0 mm | - | - | - |
| 1777560548 | 23.33° C | 48% | 1012.9 hPa | 0 mm | - | - | - |
| 1777559649 | 23.33° C | 52% | 1012.9 hPa | 0 mm | - | - | - |
| 1777558744 | 23.33° C | 53% | 1012.8 hPa | 0 mm | - | - | - |
| 1777557842 | 23.33° C | 53% | 1012.8 hPa | 0 mm | - | - | - |
| 1777556940 | 23.89° C | 50% | 1013 hPa | 0 mm | - | - | - |
| 1777556038 | 23.89° C | 46% | 1012.6 hPa | 0 mm | - | - | - |
| 1777555135 | 23.89° C | 47% | 1012.7 hPa | 0 mm | - | - | - |
| 1777554234 | 23.89° C | 49% | 1013.2 hPa | 0 mm | - | - | - |
| 1777553331 | 24.44° C | 50% | 1013.4 hPa | 0 mm | - | - | - |
| 1777552429 | 24.44° C | 45% | 1013.6 hPa | 0 mm | - | - | - |
| 1777551527 | 25° C | 44% | 1013.8 hPa | 0 mm | - | - | - |
| 1777550624 | 25° C | 49% | 1014 hPa | 0 mm | - | - | - |
* Rain latest hour (hover to see other rain measurements)
** Current wind speed in m/s (hover to see current wind gust speed)